{"data":{"norad_id":38251,"epoch":"2026-09-20T03:54:15.327360Z","epoch_age_seconds":43617,"freshness":"FRESH","line1":"1 38251U 12018B   26263.16267740 -.00000025  00000+0  00000+0 0  9999","line2":"2 38251  55.5721 300.8728 0014478 273.2663  86.6326  1.86229860 97714","mean_motion":1.8622986,"eccentricity":0.0014478,"inclination_deg":55.5721,"raan_deg":300.8728,"arg_perigee_deg":273.2663,"mean_anomaly_deg":86.6326,"bstar":0,"rev_number":9771,"period_min":773.23797590784,"perigee_km":21487.762703631,"apogee_km":21568.568193001,"semimajor_km":27906.302448316,"source":"CELESTRAK","updated_at":"2026-09-20T09:00:46.672473Z"}}